When you browse on this site, cookies collect data to enhance your experience and personalize the content and advertising you see.
Visit our Privacy Policy to learn more. By continuing to use the site, you agree to this use of cookies and data.
  • In Slovakia
  • List of Countries
  • For 7 days
  • Water Temperature
  • Satellite Maps
  • Weather Map
  • Weather Widgets
  • user-avatar
    Login

    Hourly Weather Brisbane

    Today, 20 November, Tuesday

    Time Temperature Precipitation Wind Pressure Humidity
    00:00 +19°C° 0 mm 1 mps 761 mmHg 78%
    01:00 +19°C° 0 mm 1 mps 761 mmHg 79%
    02:00 +19°C° 0 mm 1 mps 761 mmHg 80%
    03:00 +18°C° 0 mm 1 mps 761 mmHg 81%
    04:00 +18°C° 0 mm 1 mps 760 mmHg 82%
    05:00 +20°C° 0 mm 1 mps 761 mmHg 75%
    06:00 +22°C° 0 mm 1 mps 761 mmHg 67%
    07:00 +22°C° 0 mm 0 mps 761 mmHg 60%
    08:00 +26°C° 0 mm 1 mps 761 mmHg 53%
    09:00 +27°C° 0 mm 1 mps 760 mmHg 47%
    10:00 +29°C° 0 mm 2 mps 760 mmHg 39%
    11:00 +30°C° 0 mm 2 mps 759 mmHg 38%
    12:00 +31°C° 0 mm 3 mps 759 mmHg 36%
    13:00 +33°C° 0 mm 3 mps 758 mmHg 35%
    14:00 +32°C° 0 mm 4 mps 758 mmHg 38%
    15:00 +30°C° 0 mm 4 mps 757 mmHg 42%
    16:00 +29°C° 0 mm 5 mps 757 mmHg 46%
    17:00 +27°C° 0 mm 4 mps 757 mmHg 52%
    18:00 +26°C° 0 mm 4 mps 757 mmHg 58%
    19:00 +23°C° 0 mm 4 mps 757 mmHg 64%
    20:00 +22°C° 0 mm 4 mps 757 mmHg 67%
    21:00 +22°C° 0 mm 4 mps 757 mmHg 69%
    22:00 +21°C° 0 mm 4 mps 757 mmHg 72%
    23:00 +21°C° 0 mm 4 mps 757 mmHg 73%

    Tomorrow, 21 November, Wednesday

    Time Temperature Precipitation Wind Pressure Humidity
    00:00 +21°C° 0 mm 4 mps 757 mmHg 75%
    01:00 +20°C° 0 mm 4 mps 757 mmHg 76%
    02:00 +20°C° 0 mm 4 mps 757 mmHg 75%
    03:00 +20°C° 0 mm 5 mps 756 mmHg 75%
    04:00 +21°C° 0 mm 5 mps 756 mmHg 74%
    05:00 +22°C° 0 mm 5 mps 756 mmHg 69%
    06:00 +23°C° 0 mm 5 mps 756 mmHg 65%
    07:00 +25°C° 0 mm 5 mps 756 mmHg 61%
    08:00 +27°C° 0 mm 5 mps 756 mmHg 55%
    09:00 +30°C° 0 mm 5 mps 756 mmHg 49%
    10:00 +33°C° 0 mm 5 mps 756 mmHg 43%
    11:00 +34°C° 0 mm 6 mps 755 mmHg 40%
    12:00 +36°C° 0 mm 6 mps 754 mmHg 37%
    13:00 +38°C° 0 mm 6 mps 753 mmHg 34%
    14:00 +36°C° 0 mm 6 mps 753 mmHg 38%
    15:00 +35°C° 0 mm 6 mps 752 mmHg 43%
    16:00 +34°C° 0 mm 6 mps 752 mmHg 47%
    17:00 +32°C° 0.2 mm 6 mps 752 mmHg 53%
    18:00 +30°C° 0.2 mm 6 mps 753 mmHg 60%
    19:00 +28°C° 0.2 mm 6 mps 753 mmHg 67%
    20:00 +27°C° 0.5 mm 5 mps 754 mmHg 72%
    21:00 +26°C° 0.5 mm 4 mps 754 mmHg 78%
    22:00 +26°C° 0.5 mm 3 mps 755 mmHg 83%
    23:00 +25°C° 0.2 mm 3 mps 754 mmHg 85%

    Day after tomorrow, 22 November, Thursday

    Time Temperature Precipitation Wind Pressure Humidity
    00:00 +25°C° 0.2 mm 3 mps 754 mmHg 87%
    01:00 +23°C° 0.2 mm 4 mps 753 mmHg 88%
    02:00 +23°C° 0.6 mm 4 mps 753 mmHg 89%
    03:00 +23°C° 0.6 mm 4 mps 753 mmHg 90%
    04:00 +23°C° 0.6 mm 5 mps 753 mmHg 91%
    05:00 +23°C° 0.3 mm 5 mps 753 mmHg 89%
    06:00 +25°C° 0.3 mm 5 mps 754 mmHg 87%
    07:00 +25°C° 0.3 mm 5 mps 754 mmHg 85%
    08:00 +27°C° 0 mm 6 mps 754 mmHg 74%
    09:00 +29°C° 0 mm 6 mps 754 mmHg 63%
    10:00 +33°C° 0 mm 6 mps 753 mmHg 53%
    11:00 +32°C° 0.2 mm 6 mps 753 mmHg 54%
    12:00 +32°C° 0.2 mm 6 mps 753 mmHg 55%
    13:00 +32°C° 0.2 mm 7 mps 752 mmHg 56%
    14:00 +32°C° 0.5 mm 6 mps 752 mmHg 56%
    15:00 +30°C° 0.5 mm 6 mps 752 mmHg 57%
    16:00 +30°C° 0.5 mm 6 mps 751 mmHg 57%
    17:00 +29°C° 0 mm 5 mps 752 mmHg 56%
    18:00 +28°C° 0 mm 4 mps 752 mmHg 55%
    19:00 +27°C° 0 mm 3 mps 753 mmHg 54%
    20:00 +26°C° 0 mm 3 mps 754 mmHg 52%
    21:00 +25°C° 0 mm 3 mps 754 mmHg 50%
    22:00 +24°C° 0 mm 3 mps 755 mmHg 47%
    23:00 +22°C° 0 mm 3 mps 755 mmHg 43%

    23 November, Friday

    Time Temperature Precipitation Wind Pressure Humidity
    00:00 +20°C° 0 mm 3 mps 754 mmHg 39%
    01:00 +19°C° 0 mm 3 mps 754 mmHg 35%
    02:00 +19°C° 0 mm 3 mps 755 mmHg 35%
    03:00 +18°C° 0 mm 3 mps 755 mmHg 35%
    04:00 +17°C° 0 mm 3 mps 755 mmHg 35%
    05:00 +19°C° 0 mm 3 mps 755 mmHg 32%
    06:00 +20°C° 0 mm 3 mps 756 mmHg 30%
    07:00 +22°C° 0 mm 3 mps 756 mmHg 27%
    08:00 +25°C° 0 mm 3 mps 756 mmHg 23%
    09:00 +27°C° 0 mm 3 mps 756 mmHg 20%
    10:00 +29°C° 0 mm 3 mps 756 mmHg 17%
    11:00 +32°C° 0 mm 4 mps 755 mmHg 16%
    12:00 +33°C° 0 mm 4 mps 754 mmHg 15%
    13:00 +34°C° 0 mm 4 mps 754 mmHg 14%
    14:00 +34°C° 0 mm 5 mps 753 mmHg 15%
    15:00 +34°C° 0 mm 5 mps 752 mmHg 15%
    16:00 +34°C° 0 mm 6 mps 752 mmHg 16%
    17:00 +32°C° 0 mm 5 mps 752 mmHg 18%
    18:00 +28°C° 0 mm 5 mps 753 mmHg 21%
    19:00 +26°C° 0 mm 4 mps 753 mmHg 24%
    20:00 +25°C° 0 mm 3 mps 753 mmHg 26%
    21:00 +24°C° 0 mm 3 mps 754 mmHg 28%
    22:00 +22°C° 0 mm 3 mps 754 mmHg 30%
    23:00 +21°C° 0 mm 2 mps 754 mmHg 32%

    24 November, Saturday

    Time Temperature Precipitation Wind Pressure Humidity
    00:00 +20°C° 0 mm 2 mps 754 mmHg 34%
    01:00 +20°C° 0 mm 2 mps 753 mmHg 35%
    02:00 +19°C° 0 mm 2 mps 753 mmHg 37%
    03:00 +19°C° 0 mm 2 mps 754 mmHg 39%
    04:00 +18°C° 0 mm 2 mps 754 mmHg 41%
    05:00 +20°C° 0 mm 3 mps 754 mmHg 37%
    06:00 +21°C° 0 mm 3 mps 755 mmHg 33%
    07:00 +23°C° 0 mm 4 mps 755 mmHg 28%
    08:00 +26°C° 0 mm 4 mps 755 mmHg 24%
    09:00 +28°C° 0 mm 4 mps 754 mmHg 19%
    10:00 +32°C° 0 mm 5 mps 754 mmHg 15%
    11:00 +33°C° 0 mm 5 mps 753 mmHg 14%
    12:00 +34°C° 0 mm 5 mps 752 mmHg 12%
    13:00 +35°C° 0 mm 5 mps 751 mmHg 11%
    14:00 +35°C° 0 mm 5 mps 751 mmHg 11%
    15:00 +35°C° 0 mm 6 mps 750 mmHg 12%
    16:00 +35°C° 0 mm 6 mps 750 mmHg 12%
    17:00 +33°C° 0 mm 5 mps 751 mmHg 15%
    18:00 +30°C° 0 mm 4 mps 751 mmHg 17%
    19:00 +28°C° 0 mm 3 mps 752 mmHg 20%
    20:00 +27°C° 0 mm 3 mps 752 mmHg 22%
    21:00 +26°C° 0 mm 3 mps 752 mmHg 23%
    22:00 +25°C° 0 mm 2 mps 752 mmHg 25%
    23:00 +24°C° 0 mm 2 mps 752 mmHg 27%

    25 November, Sunday

    Time Temperature Precipitation Wind Pressure Humidity
    00:00 +24°C° 0 mm 3 mps 751 mmHg 28%
    01:00 +24°C° 0 mm 3 mps 751 mmHg 30%
    02:00 +24°C° 0 mm 2 mps 751 mmHg 32%
    03:00 +24°C° 0 mm 2 mps 750 mmHg 34%
    04:00 +24°C° 0 mm 2 mps 750 mmHg 36%
    05:00 +24°C° 0 mm 2 mps 751 mmHg 39%
    06:00 +25°C° 0 mm 2 mps 751 mmHg 42%
    07:00 +25°C° 0 mm 2 mps 751 mmHg 45%
    08:00 +27°C° 0.1 mm 2 mps 751 mmHg 41%
    09:00 +30°C° 0.1 mm 2 mps 750 mmHg 36%
    10:00 +32°C° 0.1 mm 2 mps 749 mmHg 32%
    11:00 +33°C° 0 mm 3 mps 748 mmHg 34%
    12:00 +32°C° 0 mm 4 mps 747 mmHg 37%
    13:00 +32°C° 0 mm 4 mps 746 mmHg 40%
    14:00 +33°C° 0 mm 5 mps 745 mmHg 37%
    15:00 +33°C° 0 mm 5 mps 745 mmHg 35%
    16:00 +34°C° 0 mm 5 mps 744 mmHg 32%
    17:00 +30°C° 0 mm 6 mps 746 mmHg 43%
    18:00 +28°C° 0 mm 6 mps 747 mmHg 54%
    19:00 +24°C° 0 mm 7 mps 748 mmHg 65%
    20:00 +23°C° 0 mm 6 mps 749 mmHg 70%
    21:00 +22°C° 0 mm 5 mps 750 mmHg 74%
    22:00 +21°C° 0 mm 4 mps 751 mmHg 79%
    23:00 +20°C° 0 mm 3 mps 751 mmHg 80%
    Show more